Simultaneous Nadir Overpasses (SNOs) Predictions

Prediction of SNOs near US between AQUA and NPP Satellite Orbit:

Table of predicted SNOs near US for the next 10.0 days since TLE Epoch: 11/17/2018
Index Date (AQUA) Time (AQUA) AQUA Lat,Lon Date (NPP) Time (NPP) NPP Lat,Lon Distance(km) Time Diff (sec)
1 11/19/2018 08:34:59 20.00,-101.88 11/19/2018 08:26:38 19.19,-102.32 101.22 501
2 11/19/2018 10:11:36 28.20,-124.61 11/19/2018 10:05:32 28.33,-125.37 75.65 364
3 11/22/2018 07:18:41 49.93, -75.97 11/22/2018 07:20:37 50.40, -78.24 169.80 116
4 11/22/2018 08:57:34 49.93,-100.69 11/22/2018 09:02:05 50.51,-103.57 214.22 271
5 11/24/2018 18:16:51 49.98, -80.18 11/24/2018 18:10:55 49.70, -81.80 120.13 356
6 11/24/2018 19:55:44 49.97,-104.89 11/24/2018 19:52:23 49.59,-107.12 165.39 201
7 11/24/2018 21:30:54 36.67,-124.98 11/24/2018 21:30:01 36.16,-127.61 242.01 53




NCC Satellite Simultaneous Nadir Overpasses (SNOs) Prediction Service
